#timestamp,LO_Frequency,Hit,StdDev 
1562940015.0,286046994.9,P
1562940015.9,286046994.9,N
1562940035.8,286046997.3,N
1562940055.6,286046999.2,N
1562940075.4,286046999.4,N
1562940095.3,286046998.1,N
1562940115.1,286046997.1,N
1562940135.9,286046997.2,N
1562940155.7,286046997.8,N
1562940175.5,286046999.4,N
1562940195.4,286046999.3,N
1562940215.2,286046999.0,N
1562940235.0,286047000.8,N
1562940236.0,286047000.8,N
1562940255.8,286046998.7,N
1562940275.6,286046998.3,N
1562940295.5,286047000.9,N
1562940315.3,286046998.6,N
1562940335.1,286046997.3,N
1562940355.9,286046999.2,N
1562940375.7,286046999.1,N
1562940395.6,286046998.6,N
1562940415.4,286046998.6,N
1562940435.2,286046999.4,N
1562940455.1,286046999.0,N
1562940456.0,286046999.0,N
1562940475.8,286046996.6,N
1562940495.7,286046997.3,N
1562940515.5,286046997.5,N
1562940535.3,286046998.1,N
1562940555.2,286046999.0,N
1562940575.0,286047001.2,N
1562940575.9,286047001.2,N
1562940595.7,286046998.5,N
1562940615.6,286046998.4,N
1562940635.4,286046998.5,N
1562940655.3,286047001.2,N
1562940675.1,286047001.0,N
1562940676.0,286047001.0,N
1562940695.8,286046999.5,N
1562940715.7,286046998.9,N
1562940735.5,286047001.1,N
1562940755.4,286047001.0,N
1562940775.2,286047002.2,N
1562940795.0,286047000.2,N
1562940795.9,286047000.2,N
1562940815.8,286046998.1,N
1562940835.6,286046999.2,N
1562940855.5,286046998.7,N
1562940875.3,286046998.6,N
1562940895.1,286047000.2,N
1562940915.9,286047001.1,N
1562940935.7,286047000.2,N
1562940955.6,286047000.3,N
1562940975.4,286047000.8,N
1562940995.2,286047000.5,N
1562941015.1,286047001.2,N
1562941016.0,286047001.2,N
1562941035.8,286047000.6,N
1562941055.6,286047000.3,N
1562941075.5,286047000.6,N
1562941095.3,286046998.3,N
1562941115.2,286046998.9,N
1562941135.9,286046998.9,N
1562941155.7,286046998.3,N
1562941175.6,286046998.2,N
1562941195.4,286047000.9,N
1562941215.2,286047000.4,N
1562941235.1,286047002.5,N
1562941236.0,286047002.5,N
1562941255.8,286047002.7,N
1562941275.7,286047002.5,N
1562941295.5,286047001.7,N
1562941315.3,286047003.5,N
1562941335.2,286047003.4,N
1562941355.0,286047002.9,N
1562941355.9,286047002.9,N
1562941375.8,286047005.2,Y
1562941395.6,286047003.1,P
1562941415.5,286047003.6,P
1562941435.3,286047005.8,P
1562941455.1,286047003.1,N
1562941475.9,286047003.8,N
1562941495.7,286047003.6,N
1562941515.6,286047004.3,Y
1562941535.4,286047000.9,P
1562941555.2,286047000.8,N
1562941575.1,286047000.3,N
1562941576.0,286047000.3,N
1562941595.8,286047000.2,N
1562941615.6,286047000.2,N
1562941635.5,286047000.9,N
1562941655.3,286047001.1,N
1562941675.2,286046998.9,N
1562941695.9,286046998.9,N
1562941715.7,286046998.4,N
1562941735.6,286046998.3,N
1562941755.4,286046998.2,N
1562941775.3,286046999.2,N
1562941795.1,286046999.6,N
1562941796.0,286046999.6,N
1562941815.8,286046997.4,N
1562941835.7,286046995.4,Y
1562941855.5,286046995.1,P
1562941875.4,286046995.3,N
1562941895.2,286046997.2,N
1562941915.1,286046999.5,N
1562941935.8,286046999.5,N
1562941955.6,286046996.5,N
1562941975.4,286046996.6,N
1562941995.3,286046997.9,N
1562942015.1,286046995.3,N
1562942035.9,286046995.2,N
1562942055.7,286046995.1,N
1562942075.5,286046995.6,N
1562942095.4,286046995.4,N
1562942115.2,286046997.4,N
1562942135.0,286046997.4,N
1562942135.9,286046997.4,N
1562942155.8,286046997.4,N
1562942175.6,286046996.7,N
1562942195.5,286046995.6,N
1562942215.3,286046995.9,N
1562942235.1,286046995.1,Y
1562942255.9,286046999.4,P
1562942275.7,286046999.0,N
1562942295.6,286046999.2,N
1562942315.4,286046999.4,N
1562942335.2,286046997.9,N
1562942355.1,286046996.1,Y
1562942356.0,286046996.1,P
1562942375.8,286046998.7,N
1562942395.6,286046998.8,N
1562942415.5,286046998.3,N
1562942435.3,286046999.4,N
1562942455.2,286046999.5,N
1562942475.9,286047000.0,N
1562942495.7,286046998.5,N
1562942515.6,286046998.7,N
1562942535.4,286046996.9,Y
1562942555.3,286046999.0,P
1562942575.1,286047000.9,P
1562942576.0,286047000.9,N
1562942595.8,286047000.6,N
1562942615.7,286047000.9,N
1562942635.5,286047000.2,N
1562942655.3,286047002.0,N
1562942675.2,286047001.9,N
1562942695.0,286047005.5,Y
1562942695.9,286047005.5,P
1562942715.8,286047003.0,N
1562942735.6,286047001.8,N
1562942755.4,286047002.3,N
1562942775.3,286047002.6,N
1562942795.1,286047002.4,N
1562942815.9,286047001.6,N
1562942835.7,286047001.7,N
1562942855.5,286047002.4,N
1562942875.4,286047003.7,Y
1562942895.2,286046998.6,P
1562942915.0,286046998.1,N
1562942916.0,286046998.1,N
1562942935.8,286046999.3,N
1562942955.6,286046998.9,N
1562942975.5,286046998.6,N
1562942995.3,286046998.2,N
1562943015.1,286047000.8,N
1562943035.9,286047000.9,N
1562943055.7,286047000.7,N
1562943075.6,286046999.3,N
1562943095.4,286046998.4,N
1562943115.2,286046998.1,N
1562943135.1,286046998.9,N
1562943136.0,286046998.9,N
1562943155.8,286047000.7,N
1562943175.6,286047000.6,N
1562943195.5,286046998.3,N
1562943215.3,286047000.3,N
1562943235.2,286047003.8,Y
1562943255.0,286047004.0,P
1562943255.9,286047004.0,N
1562943275.7,286047001.3,N
1562943295.6,286047004.3,N
1562943315.4,286047004.0,N
1562943335.3,286047004.1,N
1562943355.1,286047001.5,N
1562943375.8,286047004.3,N
1562943395.7,286047002.1,N
1562943415.5,286046998.1,N
1562943435.4,286046999.0,N
1562943455.2,286047000.6,N
1562943475.0,286047002.0,N
1562943475.9,286047002.0,N
1562943495.8,286046999.8,N
1562943515.6,286047002.8,N
1562943535.4,286047002.1,N
1562943555.3,286047003.9,N
1562943575.1,286047006.0,Y
1562943595.9,286047000.3,P
